sat.trackr.live / text

‹ back to catalog

STARLINK-5019

NORAD 55407 · 2023-014S

PAYLOAD ACTIVE UNKNOWN

§ Identity

Operator
Country
US
Launch date
2023-01-31
Launch site
AFWTR
Launch vehicle
Mass (kg)
RCS (m²)

Purposes: comms

External: N2YO · Heavens-Above · Gunter

§ Orbital elements

Epoch: 2026-09-20T11:57:17.385696Z

Period
96.11 min
Inclination
69.9977°
Eccentricity
0.0003701
Mean motion
14.98328683 rev/d
Perigee alt
569.5 km
Apogee alt
574.6 km
Semi-major
6,950.2 km
B*
4.0529e-5
RAAN
293.3639°
Arg perigee
269.1916°
Mean anomaly
90.8819°
Rev number
20,123

§ Raw data

STARLINK-50191 55407U 23014S   26263.49811789  .00000390  00000+0  40529-4 0  99922 55407  69.9977 293.3639 0003701 269.1916  90.8819 14.98328683201235

JSON: /api/v1/satellites/55407 · /tle

For live sub-satellite position, see the globe view (requires WebGL).

§ Visibility from observer

Set your observer location to see the next 7 days of passes ≥ 10°. The values pass through the URL so the page stays shareable.

No JS? Fill the form by hand. The geolocation button needs JavaScript.